Location: Fauquembergues
(50.6005°N, 2.0987°E)
Time: 10:53:56
(UTC+00:00)

Cosmos 1271 Rocket - Pass Details

Date: 14 July 2020
Orbit: 497 x 546 km, 81.2° (Epoch: 05 August)

Event Time Altitude Azimuth Distance (km) Brightness Sun altitude
Rises 02:39:06 0° 352° (N) 2,636 7.0 -9.5°
Reaches altitude 10° 02:41:20 10° 359° (N) 1,737 6.2 -9.3°
Maximum altitude 02:44:59 43° 73° (ENE) 715 3.9 -8.9°
Drops below altitude 10° 02:48:34 10° 146° (SE) 1,705 5.2 -8.5°
Sets 02:50:45 0° 153° (SSE) 2,580 6.0 -8.3°
